Location: Balady
(46.2228°N, 3.0630°E)
Time: 20:34:09
(UTC+00:00)

Daily predictions for brighter satellites

Satellite Brightness Start Highest point End
(mag) Time Altitude Azimuth Time Altitude Azimuth Time Altitude Azimuth
Cosmos 2285 Rocket 4.3 17:16:34 10° NNW 17:23:02 78° WSW 17:29:25 10° SSE
Meteor 1-16 Rocket 4.4 17:18:26 10° SSE 17:23:44 49° E 17:28:55 10° NNE
NOAA 12 4.1 17:20:19 10° SSE 17:25:34 71° ENE 17:30:52 10° N
Unknown 4.5 17:21:57 10° W 17:25:56 44° NNW 17:29:56 10° NE
Cosmos 921 Rocket 3.1 17:22:28 10° S 17:26:54 62° ESE 17:31:18 10° NNE
ATLAS 5 CENTAUR R/B 2.7 17:22:51 10° WSW 17:26:59 43° NW 17:31:38 10° NNE
Unknown 4.5 17:23:31 10° W 17:27:30 43° NNW 17:31:29 10° NE
Cosmos 1908 4.3 17:24:29 10° SE 17:27:41 24° E 17:30:52 10° NE
Cosmos 2278 Rocket 3.0 17:25:51 10° SSE 17:30:43 30° ESE 17:35:37 10° NE
Cosmos 1242 Rocket 2.7 17:30:27 10° N 17:34:05 53° ENE 17:37:41 10° SSE
Cosmos 1844 3.9 17:30:44 10° SSW 17:36:29 82° WNW 17:42:18 10° NNE
Cosmos 1777 Rocket 4.3 17:31:37 10° NNW 17:36:39 46° ENE 17:41:38 10° SE
Cosmos 2058 Rocket 3.1 17:36:46 10° S 17:41:02 58° E 17:45:19 10° NNE
Cosmos 839 Rocket 4.1 17:35:19 10° NNW 17:41:32 78° NE 17:48:33 10° SE
USA 116 4.2 17:42:46 10° NE 17:45:34 27° E 17:48:32 10° SSE
Cosmos 1726 2.1 17:42:06 10° S 17:45:40 58° E 17:49:16 10° NNE
Lacrosse 5 rocket 3.5 17:44:02 10° WNW 17:47:08 24° SW 17:50:21 10° S
CSL-04 Rocket 3.8 17:43:41 10° SE 17:49:04 55° ENE 17:54:25 10° N
Okean-O 3.5 17:49:20 10° S 17:53:40 53° W 17:58:02 10° NNW
Cosmos 292 Rocket 3.7 17:50:46 10° SSW 17:55:30 77° ESE 18:00:16 10° NNE
Cosmos 1328 3.7 17:52:19 10° N 17:56:19 82° E 18:00:16 10° S
COSMO-SKYMED 1 2.5 17:52:19 10° NNE 17:56:41 71° ESE 18:01:00 10° S
Cosmos 1939 Rocket 3.7 17:53:50 10° SE 17:57:19 29° ENE 18:00:52 10° N
ASTEX 1 3.4 17:59:36 10° N 18:04:35 89° WNW 18:09:35 10° S
Cosmos 1605 Rocket 3.9 17:58:29 10° N 18:04:41 69° E 18:10:45 10° SSE
H-2A R/B 3.7 18:04:36 15° ENE 18:05:25 16° ENE 18:08:33 10° NNE
Cosmos 1833 Rocket 2.7 18:01:45 10° NNW 18:07:19 59° ENE 18:12:51 10° SE
Cosmos 1461 3.0 18:04:07 10° NNW 18:08:07 52° NE 18:11:01 18° ESE
Unknown 3.6 18:07:19 10° NW 18:10:36 45° NNE 18:12:01 27° ENE
Cosmos 1934 Rocket 4.3 18:05:08 10° NNW 18:11:28 74° W 18:17:48 10° S
Meteor 2-10 4.0 18:07:14 10° SSW 18:12:18 83° W 18:17:22 10° N
FALCON 9 DEB 3.8 18:09:13 10° NW 18:12:33 42° NNE 18:13:56 28° ENE
Envisat 3.7 18:08:29 10° S 18:13:30 58° W 18:18:31 10° NNW
Cosmos 1727 Rocket 4.1 18:09:22 10° SSE 18:15:17 50° E 18:21:13 10° NNE
ATLAS 3B R/B 3.8 18:12:41 10° SSE 18:16:54 19° ESE 18:16:54 19° ESE
Cosmos 2084 Rocket 4.3 18:13:41 10° NNW 18:17:45 34° NE 18:19:18 26° E
CZ-2D R/B 3.3 18:14:04 10° SSE 18:17:49 53° ENE 18:21:37 10° N
YAOGAN 6 3.1 18:15:28 10° S 18:19:05 61° W 18:22:42 10° NNW
Cosmos 2173 Rocket 4.4 18:17:47 10° N 18:23:35 38° ENE 18:28:10 15° SE
Unknown 3.7 18:20:15 10° NW 18:23:39 43° NNE 18:24:34 35° ENE
CZ-4 R/B 2.2 18:20:06 10° S 18:24:11 56° W 18:28:22 10° NNW
Cosmos 1300 3.2 18:20:54 10° SSE 18:24:21 34° E 18:27:51 10° NNE
CENTAUR R/B 3.6 18:22:43 10° SSE 18:26:01 21° ESE 18:26:01 21° ESE
Lacrosse 5 1.9 18:22:29 10° NW 18:27:32 62° NE 18:29:56 30° ESE
Falcon 9 debris 3.3 18:26:23 10° NW 18:29:47 55° NNE 18:30:26 46° ENE
Abrixas rocket 1.9 18:26:59 10° WSW 18:30:03 74° SSE 18:30:25 62° ESE
Cosmos 2082 Rocket 2.2 18:28:09 10° NNW 18:33:51 66° ENE 18:37:43 21° SE
DMSP B5D1-3 4.4 18:29:45 10° NNE 18:34:54 73° ESE 18:40:02 10° S
BREEZE M DEB (TANK) 2.7 18:33:26 10° WNW 18:35:58 56° SSW 18:38:41 24° SE
Cosmos 1076 Rocket 3.5 18:32:54 10° N 18:37:14 59° ENE 18:39:44 24° SSE
Cosmos 1812 Rocket 3.5 18:32:52 10° S 18:37:15 67° E 18:41:42 10° NNE
Cosmos 967 Rocket 4.5 18:32:26 10° NNW 18:38:56 73° NE 18:43:04 24° SE
USA 238 DEB 3.6 18:38:44 10° SSW 18:45:22 70° SE 18:51:07 16° NE
USA 238 3.6 18:38:51 10° SSW 18:45:29 70° SE 18:51:10 16° NE
Unknown 4.2 18:42:45 10° WNW 18:45:38 34° SW 18:46:15 31° SSW
Unknown 3.2 18:42:32 10° NW 18:46:01 62° NNE 18:46:01 62° NNE
YAOGAN 1 3.8 18:42:56 10° S 18:47:02 42° W 18:51:11 10° NNW
Cosmos 2100 Rocket 3.9 18:41:45 10° N 18:47:54 61° ENE 18:53:06 14° SSE
Gbstr 26 Del rocket 4.1 18:45:41 10° WNW 18:51:53 79° SSW 18:55:35 32° SE
Ariane Rocket 3.0 18:50:56 10° SSE 18:56:02 81° WSW 19:01:11 10° NNW
Shenzhou-11 Module 4.2 18:57:03 10° WSW 18:58:27 20° SW 18:58:27 20° SW
In-Cosmos 22 Rocket 4.0 18:54:20 10° N 18:59:41 63° ENE 19:01:10 45° SE
SJ-11-01 4.1 19:04:37 67° E 19:04:48 68° ENE 19:09:29 10° N
Cosmos 2058 2.8 19:01:04 10° N 19:05:13 83° NE 19:05:13 83° NE
Cosmos 2016 Rocket 4.0 19:01:49 10° N 19:08:00 56° ENE 19:09:06 50° ESE
HJ-1C 4.4 19:09:59 44° NW 19:09:59 44° NW 19:12:34 10° NNW
NOSS 3-2 (A) 3.3 19:04:01 10° SSW 19:09:47 83° SE 19:13:02 31° NE
ATLAS 5 CENTAUR R/B 4.3 19:10:23 10° NW 19:13:02 15° NNW 19:15:52 10° NNE
Cosmos 2278 Rocket 3.2 19:09:09 10° SW 19:14:35 46° WNW 19:20:05 10° NNE
Cosmos 1937 Rocket 4.1 19:09:56 10° NNW 19:13:53 42° NNE 19:13:53 42° NNE
Cosmos 2297 3.6 19:10:17 10° SSW 19:15:54 66° ESE 19:15:55 66° ESE
Cosmos 990 Rocket 4.0 19:13:35 10° NNW 19:18:18 62° NE 19:18:18 62° NE
MOS 1 4.5 19:24:07 30° S 19:27:02 70° WSW 19:32:41 10° NNW
SPOT 3 Rocket 3.6 19:27:56 66° NNE 19:27:56 66° NNE 19:32:29 10° NNW
BREEZE-M DEB (TANK) 2.9 19:21:00 10° WSW 19:28:04 67° WSW 19:28:04 67° WSW
Cosmos 2061 Rocket 3.8 19:26:41 10° N 19:32:58 88° E 19:34:04 63° S
NOSS 3-2 (C) 3.2 19:28:26 10° SSW 19:34:07 80° SE 19:34:07 80° SE
SJ 16-02 3.0 19:30:28 10° NNW 19:32:28 26° N 19:32:28 26° N
ARGOS 3.6 19:42:35 53° N 19:42:35 53° N 19:46:44 10° NNW
Cosmos 1459 Rocket 4.5 19:37:07 10° NNW 19:43:12 59° W 19:47:27 21° SSW
ADEOS Rocket 3.3 19:36:10 10° NNE 19:43:56 79° ESE 19:51:05 10° S
H-2A R/B 2.5 19:45:15 56° NNW 19:45:15 56° NNW 19:49:31 10° NNW
Resurs 01 Rocket 4.2 19:56:23 13° N 19:56:23 13° N 19:56:51 10° N
Cosmos 1898 Rocket 4.4 19:57:00 10° NNW 20:01:14 46° WNW 20:01:14 46° WNW
ATLAS CENTAUR R/B 4.3 20:00:04 10° NNW 20:00:38 12° N 20:00:38 12° N
ATLAS 3B R/B 3.4 20:00:10 10° SW 20:04:15 40° SW 20:04:15 40° SW
Lacrosse 5 3.6 20:05:52 10° WNW 20:09:09 27° WSW 20:09:09 27° WSW
CENTAUR R/B 3.8 20:10:43 10° SW 20:13:19 28° SW 20:13:19 28° SW
Cosmos 2082 Rocket 4.4 20:13:15 10° NW 20:17:23 21° W 20:19:38 17° SW
